Regional Weather Roundup
Issued by NWS State College, PA

Home | Current Version | Previous Version | Graphics & Text | Print | Product List | Glossary Off
Versions: 1 2 3 4 5 6 7 8 9 10 11 12 13 14 15 16 17 18 19 20 21 22 23 24 25 26 27 28 29 30 31 32 33 34 35 36 37 38 39 40 41 42 43 44 45 46 47 48 49 50

000
ASUS41 KCTP 070810
RWRCTP

REGIONAL WEATHER ROUNDUP
NATIONAL WEATHER SERVICE STATE COLLEGE PA
400 AM EDT TUE JUL 07 2015

Note: "fair" indicates few or no clouds below 12,000 feet with no
significant weather and/or obstructions to visibility.

* = STATION THAT DOES NOT REPORT PRECIPITATION /E.G. RAIN...SNOW...ETC/
    THUNDER OR FOG.

PAZ002>004-007>009-013>016-020>023-029>032-070900-
WESTERN PENNSYLVANIA

CITY           SKY/WX    TMP DP  RH WIND       PRES   REMARKS
ERIE           PTCLDY    72  65  78 S7        29.95S
MEADVILLE      LGT RAIN  68  65  90 S3        30.00F FOG
FRANKLIN*      CLOUDY    66  63  88 SW7       30.03S
NEW CASTLE     FAIR      69  68  97 CALM      30.01F
BEAVER COUNTY  NOT AVBL
BUTLER*        PTCLDY    68  66  94 SW3       30.04S
PITTSBURGH INT CLOUDY    70  67  90 SW7       30.02S
PITTSBURGH     NOT AVBL
INDIANA*       CLOUDY    68  68 100 SW7       30.07S FOG
LATROBE        NOT AVBL
WASHINGTON CO* NOT AVBL
$$

PAZ004>006-010>012-017>019-024>028-033>037-041-042-045-046-049>053-070900-
CENTRAL PENNSYLVANIA

CITY           SKY/WX    TMP DP  RH WIND       PRES   REMARKS
BRADFORD       CLOUDY    68  65  90 VRB3      30.04S
DUBOIS         CLOUDY    69  66  90 SW9       30.04R
CLEARFIELD     CLOUDY    68  66  93 SW3       30.04S
JOHNSTOWN      MOCLDY    66  64  93 SW7       30.07F
ALTOONA        CLOUDY    68  66  93 SW3       30.05F
STATE COLLEGE  CLOUDY    69  68  97 W5        30.02S
WILLIAMSPORT   CLOUDY    72  69  90 NE6       29.98F
SELINSGROVE    CLOUDY    72  70  93 CALM      30.01S FOG
FT INDIANTOWN  CLOUDY    72  71  94 CALM      30.02S
CAPITAL CITY   CLOUDY    73  70  90 SE3       30.01S
HARRISBURG     CLOUDY    73  70  90 VRB3      30.01S
YORK           CLOUDY    73  71  93 CALM      30.03R
$$

PAZ038>040-043-044-047-048-054-055-060>062-067>071-070900-
EASTERN PENNSYLVANIA

CITY           SKY/WX    TMP DP  RH WIND       PRES   REMARKS
SCRANTON       CLOUDY    74  69  85 CALM      30.03F
MOUNT POCONO   CLOUDY    69  32  25 S8        30.08F FOG
ALLENTOWN      CLOUDY    75  71  87 SE5       30.03S
QUAKERTOWN*    MOSUNNY   72  72 100 SE3       30.04F
READING        MOCLDY    74  71  91 CALM      30.01S
LANCASTER      CLOUDY    72  71  97 CALM      30.02S
COATESVILLE    CLOUDY    73  73 100 S3        30.05S
POTTSTOWN      NOT AVBL
BLUE BELL      MOCLDY    75  72  88 CALM      30.03S
DOYLESTOWN     MOCLDY    72  71  97 VRB3      30.03F
WILLOW GROVE   NOT AVBL
NORTH PHILA    MOCLDY    76  70  82 CALM      30.04F
PHILADELPHIA   CLOUDY    77  72  84 S7        30.02F
$$


USA.gov is the U.S. government's official web portal to all federal, state and local government web resources and services.